EN

Hourly Weather Alness

Today, 16 January, Saturday

Time Temperature Precipitation Wind Pressure Humidity
00:00 +1°C° 0 mm 3 mps 751 mmHg 90%
01:00 +1°C° 0.5 mm 3 mps 749 mmHg 90%
02:00 +1°C° 0.5 mm 3 mps 748 mmHg 91%
03:00 +1°C° 0.5 mm 3 mps 747 mmHg 91%
04:00 +2°C° 0.2 mm 3 mps 745 mmHg 91%
05:00 +2°C° 0.2 mm 3 mps 744 mmHg 91%
06:00 +1°C° 0 mm 3 mps 744 mmHg 89%
07:00 +1°C° 0 mm 3 mps 743 mmHg 90%
08:00 +1°C° 0 mm 3 mps 742 mmHg 90%
09:00 +2°C° 0 mm 3 mps 742 mmHg 91%
10:00 +1°C° 0.5 mm 4 mps 742 mmHg 92%
11:00 +3°C° 0.5 mm 4 mps 742 mmHg 93%
12:00 +2°C° 0.5 mm 5 mps 742 mmHg 94%
13:00 +3°C° 0.4 mm 6 mps 743 mmHg 92%
14:00 +2°C° 0.4 mm 8 mps 743 mmHg 90%
15:00 +3°C° 0.4 mm 9 mps 744 mmHg 89%
16:00 +2°C° 0.1 mm 9 mps 745 mmHg 88%
17:00 +1°C° 0.1 mm 9 mps 745 mmHg 88%
18:00 +1°C° 0.1 mm 9 mps 746 mmHg 87%
19:00 +1°C° 0 mm 8 mps 747 mmHg 86%
20:00 0°C° 0 mm 7 mps 747 mmHg 85%
21:00 0°C° 0 mm 7 mps 748 mmHg 84%
22:00 +1°C° 0 mm 6 mps 748 mmHg 86%
23:00 +1°C° 0 mm 6 mps 749 mmHg 87%

Tomorrow, 17 January, Sunday

Time Temperature Precipitation Wind Pressure Humidity
00:00 +1°C° 0 mm 6 mps 749 mmHg 89%
01:00 +1°C° 0 mm 6 mps 749 mmHg 89%
02:00 +1°C° 0 mm 6 mps 750 mmHg 89%
03:00 +1°C° 0 mm 6 mps 750 mmHg 89%
04:00 +1°C° 0 mm 6 mps 750 mmHg 90%
05:00 +1°C° 0 mm 5 mps 751 mmHg 90%
06:00 +1°C° 0 mm 5 mps 751 mmHg 91%
07:00 +1°C° 0 mm 5 mps 752 mmHg 90%
08:00 +1°C° 0 mm 5 mps 752 mmHg 89%
09:00 +1°C° 0 mm 5 mps 752 mmHg 88%
10:00 +1°C° 0 mm 5 mps 752 mmHg 88%
11:00 +2°C° 0 mm 5 mps 752 mmHg 87%
12:00 +2°C° 0 mm 5 mps 753 mmHg 87%
13:00 +3°C° 0.5 mm 4 mps 752 mmHg 89%
14:00 +3°C° 0.5 mm 4 mps 752 mmHg 92%
15:00 +2°C° 0.5 mm 3 mps 751 mmHg 95%
16:00 +2°C° 0.3 mm 3 mps 751 mmHg 94%
17:00 +3°C° 0.3 mm 4 mps 751 mmHg 93%
18:00 +3°C° 0.3 mm 4 mps 751 mmHg 93%
19:00 +3°C° 0 mm 4 mps 750 mmHg 91%
20:00 +2°C° 0 mm 5 mps 750 mmHg 90%
21:00 +2°C° 0 mm 5 mps 750 mmHg 88%
22:00 +1°C° 0.2 mm 6 mps 750 mmHg 88%
23:00 +1°C° 0.2 mm 6 mps 750 mmHg 88%

Day after tomorrow, 18 January, Monday

Time Temperature Precipitation Wind Pressure Humidity
00:00 0°C° 0.2 mm 7 mps 750 mmHg 88%
01:00 -1°C° 0 mm 6 mps 750 mmHg 87%
02:00 -1°C° 0 mm 6 mps 750 mmHg 86%
03:00 -1°C° 0 mm 6 mps 750 mmHg 84%
04:00 -1°C° 0 mm 6 mps 749 mmHg 86%
05:00 -1°C° 0 mm 6 mps 749 mmHg 88%
06:00 -1°C° 0 mm 6 mps 749 mmHg 90%
07:00 0°C° 0.1 mm 5 mps 749 mmHg 91%
08:00 0°C° 0.1 mm 5 mps 749 mmHg 92%
09:00 0°C° 0.1 mm 5 mps 748 mmHg 93%
10:00 +1°C° 0.3 mm 5 mps 748 mmHg 92%
11:00 +1°C° 0.3 mm 5 mps 748 mmHg 90%
12:00 +2°C° 0.3 mm 5 mps 748 mmHg 89%
13:00 +2°C° 0.1 mm 6 mps 747 mmHg 89%
14:00 +1°C° 0.1 mm 6 mps 747 mmHg 89%
15:00 0°C° 0.1 mm 7 mps 746 mmHg 89%
16:00 +1°C° 0.3 mm 6 mps 746 mmHg 91%
17:00 +1°C° 0.3 mm 5 mps 745 mmHg 92%
18:00 0°C° 0.3 mm 4 mps 745 mmHg 94%
19:00 0°C° 0.1 mm 4 mps 744 mmHg 94%
20:00 0°C° 0.1 mm 4 mps 744 mmHg 94%
21:00 +1°C° 0.1 mm 3 mps 743 mmHg 94%
22:00 +1°C° 0 mm 3 mps 743 mmHg 94%
23:00 +1°C° 0 mm 3 mps 743 mmHg 95%

19 January, Tuesday

Time Temperature Precipitation Wind Pressure Humidity
00:00 0°C° 0 mm 3 mps 742 mmHg 95%
01:00 0°C° 0.1 mm 3 mps 742 mmHg 95%
02:00 0°C° 0.1 mm 3 mps 741 mmHg 95%
03:00 +1°C° 0.1 mm 2 mps 740 mmHg 95%
04:00 +1°C° 0.1 mm 2 mps 740 mmHg 95%
05:00 +1°C° 0.1 mm 2 mps 739 mmHg 95%
06:00 +1°C° 0.1 mm 2 mps 739 mmHg 95%
07:00 +1°C° 0 mm 2 mps 739 mmHg 95%
08:00 -1°C° 0 mm 2 mps 738 mmHg 94%
09:00 -1°C° 0 mm 2 mps 738 mmHg 93%
10:00 +1°C° 0 mm 2 mps 738 mmHg 91%
11:00 +1°C° 0 mm 2 mps 737 mmHg 89%
12:00 +3°C° 0 mm 1 mps 737 mmHg 87%
13:00 +3°C° 0 mm 1 mps 736 mmHg 87%
14:00 +3°C° 0 mm 1 mps 736 mmHg 88%
15:00 +2°C° 0 mm 1 mps 735 mmHg 89%
16:00 +2°C° 0 mm 1 mps 735 mmHg 89%
17:00 +1°C° 0 mm 1 mps 734 mmHg 89%
18:00 +1°C° 0 mm 1 mps 734 mmHg 89%
19:00 +1°C° 0 mm 1 mps 733 mmHg 89%
20:00 0°C° 0 mm 1 mps 733 mmHg 89%
21:00 0°C° 0 mm 1 mps 733 mmHg 90%
22:00 0°C° 0 mm 1 mps 733 mmHg 90%
23:00 0°C° 0 mm 1 mps 732 mmHg 91%

20 January, Wednesday

Time Temperature Precipitation Wind Pressure Humidity
00:00 +1°C° 0 mm 1 mps 732 mmHg 92%
01:00 +1°C° 0.1 mm 1 mps 732 mmHg 93%
02:00 -1°C° 0.1 mm 2 mps 731 mmHg 94%
03:00 +1°C° 0.1 mm 2 mps 731 mmHg 96%
04:00 +1°C° 0.7 mm 2 mps 730 mmHg 96%
05:00 0°C° 0.7 mm 3 mps 730 mmHg 96%
06:00 0°C° 0.7 mm 3 mps 730 mmHg 96%
07:00 0°C° 0.3 mm 3 mps 730 mmHg 95%
08:00 0°C° 0.3 mm 3 mps 729 mmHg 93%
09:00 0°C° 0.3 mm 3 mps 729 mmHg 92%
10:00 0°C° 0.3 mm 3 mps 729 mmHg 93%
11:00 0°C° 0.3 mm 4 mps 728 mmHg 95%
12:00 0°C° 0.3 mm 4 mps 728 mmHg 96%
13:00 -1°C° 1.6 mm 6 mps 728 mmHg 96%
14:00 -1°C° 1.6 mm 7 mps 727 mmHg 96%
15:00 -1°C° 1.6 mm 8 mps 727 mmHg 97%
16:00 -1°C° 0.8 mm 8 mps 726 mmHg 95%
17:00 -1°C° 0.8 mm 8 mps 726 mmHg 93%
18:00 -1°C° 0.8 mm 8 mps 726 mmHg 91%
19:00 -1°C° 0.3 mm 8 mps 725 mmHg 90%
20:00 -1°C° 0.3 mm 8 mps 725 mmHg 89%
21:00 -1°C° 0.3 mm 8 mps 725 mmHg 88%
22:00 -1°C° 0.2 mm 8 mps 724 mmHg 87%
23:00 -1°C° 0.2 mm 8 mps 724 mmHg 86%

21 January, Thursday

Time Temperature Precipitation Wind Pressure Humidity
00:00 -1°C° 0.2 mm 8 mps 723 mmHg 85%
01:00 -1°C° 0.2 mm 8 mps 723 mmHg 87%
02:00 -1°C° 0.2 mm 8 mps 722 mmHg 89%
03:00 -1°C° 0.2 mm 8 mps 722 mmHg 92%
04:00 -1°C° 0.3 mm 8 mps 721 mmHg 92%
05:00 -1°C° 0.3 mm 8 mps 721 mmHg 92%
06:00 -1°C° 0.3 mm 8 mps 721 mmHg 92%
07:00 -1°C° 0.2 mm 8 mps 721 mmHg 92%
08:00 -1°C° 0.2 mm 7 mps 721 mmHg 92%
09:00 -1°C° 0.2 mm 7 mps 721 mmHg 92%
10:00 -1°C° 0.2 mm 7 mps 721 mmHg 93%
11:00 -1°C° 0.2 mm 7 mps 721 mmHg 93%
12:00 -1°C° 0.2 mm 8 mps 721 mmHg 93%
13:00 -1°C° 0.9 mm 8 mps 721 mmHg 94%
14:00 -1°C° 0.9 mm 8 mps 721 mmHg 95%
15:00 -1°C° 0.9 mm 9 mps 721 mmHg 96%
16:00 -1°C° 1.4 mm 8 mps 722 mmHg 96%
17:00 -1°C° 1.4 mm 7 mps 722 mmHg 96%
18:00 -1°C° 1.4 mm 7 mps 723 mmHg 96%
19:00 -1°C° 0.7 mm 6 mps 723 mmHg 97%
20:00 -1°C° 0.7 mm 6 mps 724 mmHg 97%
21:00 0°C° 0.7 mm 5 mps 725 mmHg 97%
22:00 -1°C° 0.8 mm 6 mps 725 mmHg 97%
23:00 -1°C° 0.8 mm 6 mps 726 mmHg 97%
Show more